This demonstration page uses our WeatherBlox Daily Observations layout. Learn more.

Left ArrowRight Arrow

36.19886, -115.1175

Hourly Observations for August 29, 2015

Temp ( °F °C ) Dew Point ( °F °C ) Humidity (%) Winds ( mph kmh ) Pressure ( in mb ) Visibility ( mi km ) Precip ( " mm )
12:53 am 00:53 Clear 88 31.1 53 11.7 30 30 NW 5 7 29.82 1010 10 16 0.00 0.00
1:53 am 01:53 Clear 86 30 55 12.8 35 35 WNW 5 7 29.82 1010 10 16 0.00 0.00
2:53 am 02:53 Clear 86 30 55 12.8 35 35 Calm 29.82 1010 10 16 0.00 0.00
3:53 am 03:53 Clear 85 29.4 54 12.2 35 35 WNW 6 9 29.82 1010 10 16 0.00 0.00
4:53 am 04:53 Clear 83 28.3 53 11.7 36 36 Calm 29.82 1010 10 16 0.00 0.00
5:53 am 05:53 Clear 82 27.8 53 11.7 37 37 NNW 5 7 29.83 1010 10 16 0.00 0.00
6:53 am 06:53 Sunny 82 27.8 53 11.7 37 37 NW 5 7 29.86 1011 10 16 0.00 0.00
7:53 am 07:53 Sunny 86 30 53 11.7 32 32 Calm 29.87 1012 10 16 0.00 0.00
8:53 am 08:53 Sunny 90 32.2 52 11.1 27 27 Calm 29.88 1012 10 16 0.00 0.00
9:53 am 09:53 Sunny 93 33.9 50 10 23 23 S 6 9 29.88 1012 10 16 0.00 0.00
10:53 am 10:53 Sunny 99 37.2 47 8.3 17 17 ESE 9 15 29.87 1012 10 16 0.00 0.00
11:53 am 11:53 Sunny 102 38.9 48 8.9 16 16 SSE 18 30 29.85 1011 10 16 0.00 0.00
12:53 pm 12:53 Sunny 104 40 47 8.3 15 15 S 16 26 29.82 1010 10 16 0.00 0.00
1:53 pm 13:53 Sunny 105 40.6 46 7.8 14 14 SW 16 26 29.80 1009 10 16 0.00 0.00
2:53 pm 14:53 Sunny 105 40.6 46 7.8 14 14 WSW 13 20 29.78 1008 10 16 0.00 0.00
3:53 pm 15:53 Sunny 105 40.6 46 7.8 14 14 WSW 14 22 29.75 1008 10 16 0.00 0.00
4:53 pm 16:53 Sunny 105 40.6 44 6.7 13 13 SW 17 28 29.73 1007 10 16 0.00 0.00
5:53 pm 17:53 Sunny 104 40 43 6.1 12 12 WSW 15 24 29.73 1007 10 16 0.00 0.00
6:53 pm 18:53 Sunny 102 38.9 40 4.4 12 12 WSW 16 26 29.73 1007 10 16 0.00 0.00
7:53 pm 19:53 Clear 100 37.8 41 5 13 13 WSW 10 17 29.73 1007 10 16 0.00 0.00
8:53 pm 20:53 Clear 98 36.7 43 6.1 15 15 SW 8 13 29.75 1007 10 16 0.00 0.00
9:53 pm 21:53 Clear 96 35.6 43 6.1 16 16 WSW 6 9 29.75 1007 10 16 0.00 0.00
10:53 pm 22:53 Clear 95 35 38 3.3 14 14 WSW 13 20 29.75 1008 10 16 0.00 0.00
11:53 pm 23:53 Clear 93 33.9 38 3.3 14 14 WSW 9 15 29.76 1008 10 16 0.00 0.00

Powered by AerisWeather